Tracking 25709 objects as of 24-May-2022
HD Live streaming from Space Station
objects crossing your sky now

BINAR-1

Track BINAR-1 now!
10-day predictions


NORAD ID: 49272
Int'l Code: 1998-067SR
Perigee: 373.6 km
Apogee: 377.5 km
Inclination: 51.6 °
Period: 91.9 minutes
Semi major axis: 6746 km
RCS: Unknown
Launch date: November 20, 1998
Source: Australia (AUS)
Launch site: TYURATAM MISSILE AND SPACE COMPLEX (TTMTR)
aabbcc
Your satellite tracking list
Your tracking list is empty




NASA's NSSDC Master Catalog

Two Line Element Set (TLE):
1 49272U 98067SR  22144.21297774  .00087030  00000-0  80838-3 0  9994
2 49272  51.6360  85.0166 0002919 150.0975 210.0188 15.66686323 35869
Source of the keplerian elements: AFSPC